This is the latest recevied weather packets stored in our database for station/object SV9TNF-56. If no packets are shown the sender has not sent any weather packets the latest 10 day(s).
| Time | Temp. | Humidity | Pressure | Rain* | Wind** | Luminosity | Snow |
|---|---|---|---|---|---|---|---|
| 1788107244 | 26.11° C | 60% | 1018 hPa | 0 mm | 6.71 m/s, 198° | - | - |
| 1788106944 | 26.11° C | 58% | 1018 hPa | 0 mm | 8.05 m/s, 207° | - | - |
| 1788106644 | 26.11° C | 56% | 1018 hPa | 0 mm | 8.49 m/s, 237° | - | - |
| 1788106344 | 26.67° C | 56% | 1018.3 hPa | 0 mm | 5.36 m/s, 216° | - | - |
| 1788106044 | 26.11° C | 55% | 1018.3 hPa | 0 mm | 6.26 m/s, 200° | - | - |
| 1788105743 | 26.11° C | 57% | 1018 hPa | 0 mm | 7.6 m/s, 179° | - | - |
| 1788105443 | 26.11° C | 57% | 1018.3 hPa | 0 mm | 17.88 m/s, 232° | - | - |
| 1788105143 | 26.11° C | 57% | 1018.3 hPa | 0 mm | 5.81 m/s, 138° | - | - |
| 1788104843 | 26.11° C | 54% | 1018.3 hPa | 0 mm | 4.92 m/s, 108° | - | - |
| 1788104543 | 26.11° C | 55% | 1018.3 hPa | 0 mm | 5.36 m/s, 144° | - | - |
| 1788104243 | 26.11° C | 55% | 1018.6 hPa | 0 mm | 8.05 m/s, 216° | - | - |
| 1788103943 | 26.11° C | 55% | 1018.3 hPa | 0 mm | 8.94 m/s, 138° | - | - |
| 1788103643 | 26.11° C | 54% | 1018.6 hPa | 0 mm | 12.52 m/s, 175° | - | - |
| 1788103343 | 26.11° C | 52% | 1018.6 hPa | 0 mm | 14.31 m/s, 126° | - | - |
| 1788103043 | 26.67° C | 51% | 1018.6 hPa | 0 mm | 11.18 m/s, 133° | - | - |
| 1788102742 | 26.67° C | 50% | 1018.6 hPa | 0 mm | 6.26 m/s, 244° | - | - |
| 1788102442 | 26.11° C | 53% | 1018.3 hPa | 0 mm | 4.47 m/s, 90° | - | - |
| 1788102142 | 26.67° C | 54% | 1018.6 hPa | 0 mm | 13.41 m/s, 31° | - | - |
| 1788101842 | 26.67° C | 54% | 1018.6 hPa | 0 mm | 5.81 m/s, 83° | - | - |
| 1788101542 | 26.67° C | 54% | 1018.6 hPa | 0 mm | 7.15 m/s, 124° | - | - |
| 1788101242 | 26.11° C | 54% | 1018.6 hPa | 0 mm | 4.92 m/s, 192° | - | - |
| 1788100942 | 26.67° C | 54% | 1018.3 hPa | 0 mm | 12.07 m/s, 132° | - | - |
| 1788100642 | 26.67° C | 54% | 1018.6 hPa | 0 mm | 5.36 m/s, 120° | - | - |
| 1788100342 | 26.67° C | 51% | 1018.6 hPa | 0 mm | 6.26 m/s, 125° | - | - |
| 1788100042 | 26.11° C | 52% | 1018.3 hPa | 0 mm | 14.75 m/s, 144° | - | - |
* Rain latest hour (hover to see other rain measurements)
** Current wind speed in m/s (hover to see current wind gust speed)